Вернуться в каталог

INHA-ROSAT

АктивенНаукаSSO
NORAD 66653·PAYLOAD·🇰🇷 South Korea

Запущен Nov 26, 2025 с Naro Space Center

Loading…

Ближайшие Пролёты (ближайшие 24 часа)

TLE

СвежийSource: Space-Track

Эпоха: Sep 14, 2026, 02:04 UTC

1 66653U 25274D   26257.08661220  .00001530  00000-0  15241-3 0  9998
2 66653  97.7482 184.8145 0013978  63.1277 297.1369 14.92993249 43477

Отслеживайте INHA-ROSAT в реальном времени с AllMySat

Download on the App Store